LA1HSA-13 Weather Reports


time (UTC)temp
C
wind
direction
speed
KPH
gust
KPH
rain 1hr
cm
rain 24hr
cm
rain mn
cm
humidity
%
barometer
mb
20260506002003 -1 0 0.0 0.0 0.00 0.00 0.00 75 1011.8
20260506001003 -1 0 0.0 0.0 0.00 0.00 0.00 76 1011.9
20260506000004 -1 0 0.0 0.0 0.00 0.00 0.00 74 1012.0
20260505235003 -1 0 0.0 0.0 0.00 0.00 0.00 74 1011.9
20260505234003 -1 0 0.0 0.0 0.00 0.00 0.00 72 1011.9
20260505233003 -1 0 0.0 0.0 0.00 0.00 0.00 70 1012.1
20260505232003 -1 0 0.0 0.0 0.00 0.00 0.00 70 1012.0
20260505231003 -1 0 0.0 0.0 0.00 0.00 0.00 70 1011.9
20260505230003 0 0 0.0 0.0 0.00 0.00 0.00 69 1011.9
20260505225003 0 0 0.0 0.0 0.00 0.00 0.00 68 1011.6
20260505224003 0 0 0.0 3.2 0.00 0.00 0.00 68 1011.8
20260505223003 0 0 0.0 0.0 0.00 0.00 0.00 65 1011.8
20260505222003 0 0 0.0 0.0 0.00 0.00 0.00 63 1011.8
20260505221003 1 0 0.0 0.0 0.00 0.00 0.00 60 1011.6
20260505220021 1 0 0.0 0.0 0.00 0.00 0.00 57 1011.9
20260505215003 1 0 0.0 0.0 0.00 0.00 0.00 59 1011.9
20260505214003 1 0 0.0 0.0 0.00 0.00 0.00 56 1011.8
20260505213003 1 0 0.0 0.0 0.00 0.00 0.00 55 1011.7
20260505212003 1 0 0.0 0.0 0.00 0.00 0.00 57 1011.2
20260505211003 1 0 0.0 0.0 0.00 0.00 0.00 58 1011.5
20260505210003 1 0 0.0 0.0 0.00 0.00 0.00 56 1011.5
20260505205003 2 0 0.0 3.2 0.00 0.00 0.00 54 1011.3
20260505204003 2 90 1.6 3.2 0.00 0.00 0.00 52 1011.1
20260505203003 2 0 0.0 3.2 0.00 0.00 0.00 54 1010.8
20260505202003 2 0 0.0 0.0 0.00 0.00 0.00 55 1010.9
20260505201003 2 0 0.0 3.2 0.00 0.00 0.00 52 1011.0
20260505200004 3 0 0.0 6.4 0.00 0.00 0.00 47 1010.9
20260505195003 3 0 0.0 3.2 0.00 0.00 0.00 52 1010.6
20260505194003 3 0 0.0 3.2 0.00 0.00 0.00 48 1010.6
20260505193003 4 0 0.0 3.2 0.00 0.00 0.00 47 1010.8
20260505192003 5 78 1.6 6.4 0.00 0.00 0.00 44 1010.7
20260505191003 5 0 0.0 3.2 0.00 0.00 0.00 43 1010.4
20260505190003 6 0 0.0 6.4 0.00 0.05 0.00 40 1010.3
20260505185003 7 58 1.6 6.4 0.00 0.05 0.00 37 1010.3
20260505184003 7 53 3.2 9.7 0.00 0.05 0.00 36 1010.4
20260505183003 8 67 1.6 11.3 0.00 0.05 0.00 35 1010.2
20260505182003 8 47 6.4 12.9 0.00 0.05 0.00 34 1010.0
20260505181003 8 56 3.2 11.3 0.00 0.05 0.00 34 1010.1
20260505180003 8 43 3.2 11.3 0.00 0.05 0.00 33 1010.1
20260505175003 8 50 6.4 14.5 0.00 0.05 0.00 32 1010.0
20260505174003 8 34 6.4 17.7 0.00 0.05 0.00 32 1010.0
20260505173003 9 34 6.4 12.9 0.00 0.05 0.00 31 1010.0
20260505172004 9 47 3.2 12.9 0.00 0.05 0.00 31 1009.8
20260505171003 9 59 6.4 12.9 0.00 0.05 0.00 31 1009.9
20260505170004 9 58 6.4 12.9 0.00 0.05 0.00 33 1009.8
20260505165003 9 57 6.4 12.9 0.00 0.05 0.00 33 1010.1
20260505164003 8 63 6.4 12.9 0.00 0.05 0.00 33 1010.1
20260505163003 7 61 3.2 12.9 0.00 0.05 0.00 36 1009.9
20260505162003 7 70 6.4 20.9 0.00 0.05 0.00 36 1009.9
20260505161003 7 72 8.0 22.5 0.00 0.05 0.00 36 1010.1
20260505153003 10 29 9.7 22.5 0.00 0.05 0.00 26 1009.7
20260505152003 9 34 6.4 22.5 0.00 0.05 0.00 29 1009.7
20260505151003 10 19 11.3 24.1 0.00 0.05 0.00 26 1009.5
20260505125003 9 64 8.0 17.7 0.00 0.05 0.00 32 1009.6
20260505124003 8 68 8.0 14.5 0.00 0.05 0.00 31 1009.4
20260505123003 8 54 4.8 24.1 0.00 0.05 0.00 31 1009.4
20260505122003 8 49 3.2 12.9 0.00 0.05 0.00 29 1009.2
20260505121003 10 349 6.4 14.5 0.00 0.05 0.00 32 1009.4
20260505120004 10 5 4.8 14.5 0.00 0.05 0.00 34 1009.3
20260505115003 10 2 6.4 12.9 0.00 0.05 0.00 32 1009.6
20260505114003 10 353 4.8 11.3 0.00 0.05 0.00 32 1009.3
20260505113003 9 66 3.2 14.5 0.00 0.05 0.00 35 1009.3
20260505112003 8 66 6.4 12.9 0.00 0.05 0.00 38 1009.2
20260505111003 8 48 4.8 17.7 0.00 0.05 0.00 33 1009.4
20260505102003 7 25 3.2 11.3 0.00 0.05 0.00 37 1009.6
20260505101004 7 58 6.4 11.3 0.00 0.05 0.00 38 1009.9
20260505100003 7 0 0.0 6.4 0.00 0.05 0.00 38 1009.7
20260505095003 7 18 3.2 9.7 0.00 0.05 0.00 41 1009.9
20260505094003 7 51 1.6 11.3 0.00 0.05 0.00 39 1009.7
20260505093004 7 68 6.4 12.9 0.00 0.05 0.00 43 1009.8
20260505092003 6 52 4.8 17.7 0.00 0.05 0.00 44 1009.7
20260505091003 7 353 6.4 12.9 0.00 0.05 0.00 42 1009.7
20260505090004 7 45 3.2 11.3 0.00 0.05 0.00 44 1009.7
20260505085003 6 49 4.8 11.3 0.00 0.05 0.00 44 1009.8
20260505084003 6 64 6.4 17.7 0.00 0.05 0.00 41 1009.7
20260505083003 6 84 3.2 12.9 0.00 0.05 0.00 42 1009.6
20260505082003 7 48 3.2 11.3 0.00 0.05 0.00 46 1009.9
20260505081003 6 36 6.4 12.9 0.00 0.05 0.00 42 1009.8
20260505080003 7 55 6.4 14.5 0.00 0.05 0.00 46 1009.5
20260505075003 6 72 6.4 11.3 0.00 0.05 0.00 45 1009.5
20260505074003 6 35 6.4 11.3 0.00 0.05 0.00 46 1009.4
20260505073003 6 55 3.2 12.9 0.00 0.05 0.00 49 1009.6
20260505072003 5 48 3.2 12.9 0.00 0.05 0.00 48 1009.7
20260505071003 5 40 3.2 9.7 0.00 0.05 0.00 49 1009.3
20260505070003 5 74 4.8 14.5 0.00 0.05 0.00 50 1009.4
20260505065003 5 71 1.6 6.4 0.00 0.05 0.00 49 1009.3
20260505064003 4 74 4.8 11.3 0.00 0.05 0.00 52 1009.0
20260505063003 4 92 3.2 9.7 0.00 0.05 0.00 53 1009.3
20260505062003 4 70 3.2 6.4 0.00 0.05 0.00 54 1009.4
20260505061003 3 67 1.6 6.4 0.00 0.05 0.00 56 1009.3
20260505060003 3 80 3.2 6.4 0.00 0.05 0.00 56 1009.1
20260505055003 2 0 0.0 6.4 0.00 0.05 0.00 61 1009.2
20260505054003 2 38 3.2 6.4 0.00 0.05 0.00 61 1009.1
20260505053003 2 51 3.2 3.2 0.00 0.05 0.00 60 1009.3
20260505052003 1 66 1.6 3.2 0.00 0.05 0.00 62 1009.1
20260505051003 1 0 0.0 3.2 0.00 0.05 0.00 65 1009.2
20260505041003 -1 0 0.0 6.4 0.00 0.05 0.00 77 1008.8
20260505040004 0 0 0.0 3.2 0.00 0.05 0.00 74 1008.6
20260505035003 0 0 0.0 3.2 0.00 0.05 0.00 70 1008.5
20260505034003 0 0 0.0 6.4 0.00 0.05 0.00 72 1008.3
20260505033003 0 112 1.6 3.2 0.00 0.05 0.00 73 1008.2
20260505032003 0 0 0.0 3.2 0.00 0.05 0.00 75 1008.1
20260505031003 0 0 0.0 3.2 0.00 0.05 0.00 73 1008.3
20260505030003 -1 0 0.0 3.2 0.00 0.05 0.00 75 1008.2
20260505025004 -1 176 1.6 3.2 0.00 0.05 0.00 77 1007.9
20260505024003 0 0 0.0 0.0 0.00 0.05 0.00 74 1007.8
20260505023003 0 0 0.0 0.0 0.00 0.05 0.00 72 1007.8
20260505022003 0 0 0.0 0.0 0.00 0.05 0.00 71 1007.9
20260505021003 0 0 0.0 3.2 0.00 0.05 0.00 69 1007.6
20260505020003 0 0 0.0 3.2 0.00 0.05 0.00 67 1007.7
20260505015003 1 114 1.6 6.4 0.00 0.05 0.00 65 1007.3
20260505014003 0 0 0.0 3.2 0.00 0.05 0.00 68 1007.6
20260505013003 1 0 0.0 6.4 0.00 0.05 0.00 66 1007.4
20260505012003 1 66 3.2 9.7 0.00 0.05 0.00 65 1007.3
20260505011003 1 71 3.2 14.5 0.00 0.05 0.00 65 1007.1
20260505010003 1 43 4.8 17.7 0.00 0.05 0.00 64 1006.9
20260505005004 2 37 9.7 17.7 0.00 0.05 0.00 63 1006.8
20260505004003 2 42 8.0 17.7 0.00 0.05 0.00 64 1006.9
20260505003003 2 51 4.8 14.5 0.00 0.05 0.00 66 1006.8